Location: Hermaringen
(48.5952°N, 10.2585°E)
Time: 06:15:01
(UTC+00:00)

Cosmos 2084 Rocket - Pass Details

Date: 18 November 2025
Orbit: 549 x 566 km, 62.8° (Epoch: 06 December)

Event Time Altitude Azimuth Distance (km) Brightness Sun altitude
Rises 16:33:29 0° 242° (WSW) 2,738 9.0 -9.5°
Reaches altitude 10° 16:35:47 10° 250° (WSW) 1,849 7.7 -9.9°
Maximum altitude 16:39:45 41° 321° (NW) 826 4.4 -10.5°
Drops below altitude 10° 16:43:45 10° 33° (NNE) 1,868 5.6 -11.2°
Enters shadow 16:43:55 - 33° (NNE) 1,932 5.6 -11.2°
